Wind_Speed
56 54 53 50 43 40 39 40 33 32 27 33 34 39 41 41 41 40 38 34 32 28 33 29 26 25 24 22 19 19 20 21 21 22 22 19 17 15 15 16 16 17 17 18
56 52 50 47 43 40 41 40 45 41 35 35 36 36 37 46 44 43 42 40 37 37 36 31 29 27 24 24 24 23 24 23 24 24 23 21 19 18 20 19 19 19 19 20
51 50 50 47 43 42 43 42 40 42 41 38 36 34 39 42 46 47 45 42 43 41 39 36 33 29 29 27 27 28 29 28 27 27 25 23 22 23 24 22 21 21 22 22
49 46 45 45 46 43 42 40 40 41 42 39 36 38 32 35 45 51 47 46 45 43 41 39 36 33 31 31 34 33 32 29 29 29 27 25 25 26 25 24 24 24 24 25
48 44 46 46 42 46 46 42 39 42 44 42 42 45 35 33 38 47 49 46 47 47 43 41 38 36 37 39 36 35 34 32 31 30 29 28 28 28 27 26 27 26 27 28
58 51 50 46 51 51 49 45 43 44 47 53 46 49 40 38 33 33 47 49 48 48 45 44 41 41 40 40 38 35 34 34 33 33 32 32 30 30 29 29 29 29 29 30
57 56 49 52 53 53 49 45 48 50 49 56 50 51 48 33 39 35 35 51 51 49 50 48 47 44 41 41 39 38 37 37 37 36 34 33 32 32 31 32 31 32 32 32
55 56 51 52 51 49 47 49 49 51 47 48 51 48 53 44 40 37 38 46 57 54 54 52 49 46 44 43 43 42 40 39 40 40 37 36 35 34 34 34 34 35 35 36
58 57 56 56 56 57 52 53 52 50 50 50 51 50 49 47 36 35 42 48 49 55 53 52 51 47 46 45 45 44 43 42 42 41 40 39 38 37 38 38 37 38 39 39
60 61 60 59 62 61 57 55 53 54 52 49 48 53 49 46 37 31 28 30 36 51 48 52 53 49 49 47 48 48 47 45 44 44 44 42 41 41 42 41 41 41 42 43
63 61 59 60 59 59 60 61 57 56 54 51 48 50 42 43 44 38 33 36 32 34 48 58 53 54 53 51 51 51 50 48 47 47 46 46 46 46 46 44 43 44 44 44
63 63 63 58 59 59 56 53 52 51 51 53 51 43 40 34 44 31 36 42 47 44 40 59 58 57 56 54 53 53 52 52 51 51 50 50 50 49 49 47 47 47 47 47
58 60 56 58 57 58 59 58 54 50 52 53 52 40 38 40 40 45 40 40 40 46 45 45 62 58 56 57 56 55 54 53 53 52 53 53 52 52 51 50 49 50 48 49
44 47 44 46 49 47 52 52 49 44 51 50 52 36 39 39 40 43 44 46 47 45 44 45 48 53 50 54 57 54 55 55 55 54 54 54 53 52 52 51 51 50 50 51
38 41 41 42 44 46 47 50 51 51 48 54 42 50 37 38 42 44 45 43 44 45 48 47 47 52 55 55 56 53 54 56 56 55 54 53 52 52 51 50 50 51 51 53
43 42 43 43 45 49 50 49 51 49 49 53 50 47 41 42 44 46 48 49 47 51 49 52 51 52 67 60 58 56 58 57 56 53 52 52 52 52 51 51 52 54 53 54
39 41 41 43 45 48 52 50 49 50 52 49 55 39 48 49 48 42 42 44 45 47 50 53 53 52 54 59 56 55 57 57 54 54 54 54 54 52 53 54 53 53 54 54
36 36 41 42 41 42 38 43 44 45 46 49 52 49 54 53 50 53 49 44 45 46 48 52 53 49 53 55 58 60 58 55 55 55 54 53 52 51 51 52 53 53 54 53
36 38 39 44 46 40 37 42 42 43 43 42 46 47 53 53 56 53 49 45 48 50 51 58 61 55 51 52 54 52 52 53 53 52 52 52 52 51 50 50 52 53 54 54
32 31 34 32 39 37 31 35 39 40 39 39 41 44 46 49 54 49 45 44 47 49 53 57 54 57 57 57 54 53 53 52 50 49 48 48 50 51 52 52 53 54 54 53
32 32 32 31 34 35 39 41 43 39 32 35 31 36 39 45 46 44 42 42 38 44 47 48 47 51 54 56 53 51 49 49 51 50 48 50 52 52 55 56 54 53 55 56
35 32 36 35 32 32 33 36 38 30 28 33 29 29 32 33 33 34 37 37 37 39 42 46 49 53 55 56 56 57 58 55 52 53 54 55 54 54 54 54 55 55 58 59
37 37 36 35 28 22 24 23 25 26 28 24 25 33 31 34 35 30 30 35 38 37 46 48 45 48 53 48 48 50 52 53 55 55 55 56 56 56 56 55 55 55 60 63
33 33 36 37 38 35 32 29 26 25 28 29 32 30 27 27 28 29 30 30 31 37 43 50 49 47 48 49 50 50 51 52 54 54 54 52 52 53 54 55 62 61 62 66
33 34 37 39 35 30 30 27 26 27 27 33 36 36 33 31 29 30 30 33 33 33 36 44 49 51 54 56 56 57 58 56 53 52 52 54 57 62 65 63 63 67 70 73
36 37 39 36 33 35 35 35 35 32 32 34 32 34 32 34 34 36 35 35 37 39 40 41 43 43 45 48 49 50 53 57 61 63 63 63 63 63 64 66 67 66 65 63
Wind_Direction
218 218 223 226 226 229 231 230 228 226 234 243 238 234 218 219 223 224 224 221 225 220 226 221 219 220 226 225 219 219 219 217 217 214 212 215 222 231 243 255 268 277 284 286
219 221 223 226 224 227 234 233 231 234 229 243 244 240 221 217 219 224 224 221 218 220 226 222 223 221 224 226 224 221 222 225 225 221 223 228 235 243 250 258 264 271 275 281
219 223 226 227 227 228 233 234 233 235 235 241 235 240 234 220 224 222 225 224 222 222 226 225 221 223 225 227 228 228 228 227 226 226 229 235 242 251 259 265 269 272 279 285
213 219 223 229 227 227 233 234 237 245 243 230 237 236 240 234 230 226 223 226 225 225 228 231 228 224 229 229 229 228 231 229 226 228 233 239 249 259 266 271 275 278 282 280
218 223 222 221 226 228 231 232 234 239 240 238 242 247 218 237 236 233 233 228 229 230 227 232 230 229 229 231 233 234 234 233 231 235 242 248 256 260 264 268 273 278 278 278
211 216 217 216 219 223 227 230 233 236 241 245 244 247 232 231 246 245 234 236 233 233 232 233 231 230 231 234 236 236 239 237 235 238 244 251 253 259 264 267 273 276 277 279
209 214 216 215 217 221 227 228 231 234 238 245 243 242 245 232 239 249 253 238 234 234 234 232 234 232 230 232 235 237 239 242 244 247 249 252 256 261 265 269 274 276 279 278
205 212 212 216 216 220 227 227 230 235 243 251 255 251 249 259 264 261 252 249 237 234 236 235 235 234 233 235 237 239 240 242 247 248 250 253 258 262 267 271 275 279 280 281
207 210 214 216 216 220 222 226 232 235 242 248 255 255 255 263 263 266 260 244 239 237 238 241 239 240 238 237 240 241 244 245 249 253 254 256 259 264 267 270 274 277 280 281
214 219 217 220 219 219 222 227 231 233 238 243 250 258 260 264 262 251 253 237 240 232 241 242 242 240 242 241 243 244 246 248 249 253 256 258 261 263 267 270 272 276 278 280
213 215 219 223 224 224 230 232 233 230 233 239 247 255 255 260 267 245 254 253 251 265 245 238 240 240 239 241 243 245 247 250 252 254 256 259 261 263 266 269 272 274 275 276
222 222 223 226 228 232 235 236 236 240 240 238 240 245 254 255 262 261 258 260 257 265 255 235 237 240 240 240 242 244 246 249 251 253 255 257 260 264 268 270 271 272 274 276
224 227 232 235 233 232 233 234 235 237 240 237 239 241 241 250 255 264 255 256 259 258 258 249 234 238 243 241 243 245 248 250 252 254 256 258 260 262 266 267 269 271 272 275
231 234 242 246 244 245 247 247 246 249 247 241 238 229 239 243 251 260 267 267 268 268 264 253 239 232 238 240 242 243 246 249 251 253 255 257 259 260 262 265 267 269 272 274
230 233 235 238 243 245 244 245 246 247 245 248 233 238 230 239 249 254 261 265 268 267 271 264 246 229 236 238 241 243 245 248 250 252 254 257 258 259 261 264 266 268 270 272
221 227 231 236 238 243 244 244 248 248 249 250 245 238 237 238 241 246 250 259 263 266 264 259 252 246 231 235 239 240 244 247 250 251 253 255 257 260 263 265 266 268 270 272
228 230 232 237 240 241 244 248 250 250 247 248 249 239 246 248 247 245 244 251 256 262 262 257 245 242 233 233 238 243 245 247 250 252 255 258 259 261 263 265 266 268 269 271
226 228 230 234 239 242 252 249 250 254 252 252 249 244 247 246 244 241 238 242 248 254 250 240 243 236 231 235 240 244 247 248 250 253 256 259 261 262 263 265 266 268 271 273
227 226 228 233 241 247 248 251 250 251 250 253 253 249 248 245 246 245 246 245 245 250 248 251 253 243 233 234 237 242 248 251 253 255 257 259 260 261 261 264 266 269 271 272
222 228 230 243 247 247 249 243 246 249 252 250 244 242 245 248 248 248 248 246 247 247 252 247 248 246 238 240 240 243 247 252 256 255 254 256 260 263 264 266 268 269 271 274
238 239 244 257 258 247 241 241 242 247 256 257 252 250 252 250 252 250 253 251 248 254 253 250 251 245 243 239 239 243 244 248 254 258 261 261 261 262 263 265 268 271 273 275
240 247 248 250 254 243 248 246 249 253 253 254 255 245 252 257 261 259 257 259 254 250 245 246 249 250 242 240 241 243 248 252 253 255 257 259 261 263 266 268 271 272 274 275
232 241 244 248 250 244 246 251 248 245 244 247 248 248 252 257 261 263 262 255 253 252 247 243 244 247 247 246 249 250 251 252 255 255 256 258 261 263 267 268 269 270 271 275
234 236 240 242 243 244 255 264 266 241 238 247 251 254 253 257 261 263 263 261 260 255 250 247 242 242 243 242 244 248 251 253 254 256 259 261 263 266 268 265 268 273 276 278
237 239 237 239 241 243 245 249 257 252 250 248 251 253 254 252 255 257 259 260 259 259 255 254 254 252 251 248 247 246 246 249 252 255 257 259 260 264 271 272 274 275 276 277
235 231 231 232 235 237 238 249 255 255 254 252 253 258 257 253 250 254 256 256 256 256 255 256 256 257 256 256 255 256 257 257 259 261 263 265 267 268 269 270 273 276 278 280
Height
5742 5749 5756 5767 5775 5780 5787 5792 5800 5803 5803 5808 5811 5816 5821 5826 5833 5838 5843 5847 5853 5856 5854 5857 5860 5862 5866 5869 5871 5873 5876 5878 5881 5884 5885 5885 5886 5886 5886 5886 5887 5886 5886 5886
5735 5742 5752 5761 5768 5774 5779 5786 5792 5796 5798 5799 5804 5809 5813 5817 5824 5831 5836 5839 5845 5847 5848 5853 5857 5859 5863 5866 5868 5869 5871 5874 5877 5879 5880 5882 5883 5883 5882 5882 5882 5883 5882 5882
5729 5739 5745 5752 5760 5767 5770 5777 5785 5788 5791 5790 5796 5801 5807 5812 5819 5822 5828 5833 5837 5841 5845 5848 5851 5854 5858 5862 5865 5865 5866 5868 5872 5874 5876 5878 5879 5879 5878 5878 5878 5877 5877 5877
5720 5731 5739 5746 5754 5760 5763 5770 5776 5781 5784 5785 5789 5793 5802 5807 5811 5815 5821 5825 5831 5835 5839 5843 5847 5849 5854 5856 5857 5859 5862 5864 5867 5869 5870 5872 5873 5873 5873 5874 5874 5873 5872 5871
5715 5722 5731 5738 5747 5751 5755 5762 5767 5771 5776 5779 5783 5782 5799 5801 5805 5812 5816 5820 5826 5831 5831 5836 5841 5843 5844 5847 5851 5854 5857 5859 5861 5863 5864 5865 5867 5868 5868 5868 5868 5868 5866 5864
5704 5713 5721 5732 5736 5741 5746 5755 5760 5763 5767 5767 5775 5778 5786 5797 5803 5805 5809 5814 5820 5825 5828 5830 5832 5833 5838 5841 5844 5848 5851 5854 5855 5857 5858 5860 5861 5861 5862 5861 5861 5861 5860 5859
5695 5703 5715 5721 5725 5732 5739 5746 5748 5752 5755 5758 5765 5768 5776 5792 5795 5800 5802 5805 5810 5817 5820 5821 5823 5827 5831 5835 5838 5840 5843 5847 5848 5850 5852 5853 5854 5854 5854 5855 5855 5853 5853 5851
5683 5695 5705 5712 5718 5727 5730 5733 5738 5742 5749 5756 5756 5766 5771 5782 5787 5790 5793 5794 5800 5806 5810 5812 5817 5820 5825 5829 5831 5833 5835 5839 5840 5842 5843 5844 5846 5846 5847 5846 5846 5845 5844 5843
5678 5686 5693 5699 5710 5714 5718 5723 5730 5736 5739 5744 5748 5759 5766 5770 5780 5782 5781 5786 5791 5798 5803 5806 5810 5815 5818 5821 5824 5826 5828 5830 5831 5834 5834 5836 5837 5838 5838 5838 5837 5836 5835 5833
5671 5677 5683 5688 5697 5701 5710 5717 5720 5723 5729 5732 5742 5747 5760 5763 5770 5774 5775 5778 5781 5785 5791 5798 5802 5806 5809 5811 5814 5817 5819 5822 5822 5824 5825 5826 5828 5828 5828 5829 5828 5827 5825 5824
5660 5670 5677 5679 5688 5699 5706 5706 5710 5714 5718 5724 5733 5742 5751 5754 5757 5764 5767 5771 5772 5776 5777 5783 5788 5793 5796 5799 5803 5806 5809 5812 5814 5815 5816 5817 5818 5817 5817 5817 5817 5815 5814 5812
5653 5660 5665 5672 5680 5686 5691 5696 5702 5707 5715 5715 5720 5733 5739 5744 5748 5752 5755 5759 5762 5764 5766 5768 5774 5780 5784 5787 5791 5795 5798 5801 5803 5804 5806 5807 5807 5807 5806 5806 5805 5804 5803 5801
5648 5652 5658 5663 5671 5676 5683 5690 5695 5696 5698 5705 5709 5727 5729 5733 5738 5737 5743 5746 5750 5753 5754 5756 5761 5767 5772 5775 5779 5782 5785 5788 5789 5791 5793 5795 5795 5795 5795 5795 5793 5793 5791 5790
5640 5646 5654 5662 5668 5673 5676 5681 5684 5685 5685 5702 5702 5718 5720 5725 5729 5728 5730 5733 5737 5740 5743 5743 5746 5753 5757 5762 5766 5768 5772 5774 5776 5777 5780 5782 5783 5783 5783 5783 5782 5782 5779 5777
5633 5641 5646 5650 5655 5660 5664 5669 5672 5674 5687 5681 5706 5698 5711 5715 5717 5718 5719 5721 5724 5727 5728 5732 5734 5738 5743 5747 5751 5754 5757 5760 5763 5765 5766 5769 5770 5770 5771 5771 5770 5769 5766 5764
5624 5632 5638 5641 5645 5648 5653 5662 5666 5672 5675 5678 5691 5695 5701 5701 5703 5706 5706 5705 5707 5713 5718 5719 5720 5722 5727 5731 5735 5739 5742 5745 5748 5750 5753 5754 5757 5758 5758 5758 5756 5755 5753 5752
5621 5628 5631 5633 5636 5639 5646 5661 5659 5661 5664 5674 5673 5697 5685 5687 5690 5694 5693 5693 5696 5701 5706 5707 5708 5709 5713 5719 5723 5727 5730 5733 5736 5738 5740 5742 5744 5745 5745 5744 5743 5742 5740 5739
5616 5619 5622 5626 5629 5633 5650 5648 5651 5653 5657 5660 5667 5679 5674 5675 5674 5672 5675 5680 5686 5691 5694 5694 5695 5698 5701 5706 5711 5715 5718 5721 5722 5724 5727 5730 5731 5731 5731 5730 5729 5728 5727 5726
5608 5610 5614 5617 5622 5632 5639 5640 5640 5639 5651 5651 5656 5659 5657 5657 5653 5660 5663 5665 5669 5673 5679 5681 5684 5687 5690 5694 5698 5702 5706 5709 5711 5713 5714 5715 5716 5716 5716 5717 5716 5714 5713 5712
5598 5603 5607 5611 5614 5621 5628 5627 5626 5628 5643 5641 5639 5643 5643 5638 5640 5654 5648 5649 5655 5660 5664 5669 5673 5676 5679 5683 5686 5690 5694 5697 5700 5700 5700 5701 5702 5703 5703 5703 5702 5700 5700 5699
5592 5596 5599 5603 5607 5613 5614 5615 5618 5625 5637 5625 5630 5630 5630 5631 5633 5637 5638 5637 5641 5649 5654 5657 5661 5665 5667 5670 5674 5678 5681 5684 5682 5684 5685 5687 5688 5688 5689 5689 5688 5687 5686 5685
5585 5588 5593 5597 5600 5602 5607 5610 5615 5619 5617 5617 5622 5622 5621 5622 5624 5626 5629 5630 5632 5638 5640 5644 5649 5651 5654 5655 5659 5663 5665 5665 5667 5668 5670 5672 5674 5675 5675 5674 5674 5672 5672 5670
5578 5583 5587 5591 5594 5597 5599 5602 5602 5604 5607 5609 5611 5611 5611 5613 5615 5618 5619 5622 5623 5626 5629 5632 5635 5637 5640 5642 5645 5649 5651 5653 5653 5655 5656 5658 5659 5659 5660 5660 5659 5657 5655 5653
5569 5573 5576 5581 5584 5590 5590 5592 5594 5596 5598 5601 5602 5602 5603 5605 5608 5609 5611 5613 5615 5617 5619 5620 5623 5625 5627 5630 5633 5636 5637 5639 5640 5642 5644 5645 5646 5646 5645 5643 5641 5639 5638 5635
5561 5565 5567 5570 5574 5579 5582 5585 5587 5589 5591 5592 5593 5593 5595 5596 5598 5600 5601 5603 5605 5606 5609 5610 5612 5614 5615 5616 5619 5621 5622 5624 5626 5627 5628 5628 5629 5629 5627 5625 5623 5622 5620 5618
5551 5555 5558 5561 5567 5569 5573 5574 5575 5578 5581 5584 5585 5585 5586 5587 5588 5589 5591 5591 5592 5595 5598 5600 5600 5601 5602 5604 5605 5607 5608 5609 5610 5611 5612 5612 5612 5611 5610 5608 5607 5605 5603 5600